Date String (YYYY-MM-DD hh:mm:ss) UTC,Instrument flags,Ambient pressure (hPa),Sample flow (lpm),Bypass flow (lpm),Sample temperature (°C),Ambient temperature (°C),ASC tube jacket temperature (°C),LED temperature (°C),Box temperature (°C),Sample RH (%),Span deviation,Mass concentration (μg/m³),Mass concentration (μg/m³),Mass concentration (μg/m³)
DateTimeUTC,F1_M11,P_M11,Q1_M11,Q2_M11,T1_M11,T2_M11,T3_M11,T4_M11,T5_M11,U1_M11,ZSPAN_M11,X0_M11,X2_M11,X1_M11
2022-09-11 13:00:00,,0834.1,5.00,0.00,26.4,24.8,00.0,35.2,28.3,26.6,0000.8,0008.89,0006.46,0006.25
2022-09-11 13:01:00,,0834.1,4.99,0.00,26.4,24.8,00.0,35.2,28.3,26.7,0001.1,0008.93,0006.50,0006.27
2022-09-11 13:02:00,,0834.0,5.01,0.00,26.4,24.8,00.0,35.2,28.3,26.7,0001.6,0008.94,0006.52,0006.28
2022-09-11 13:03:00,,0834.1,4.99,0.00,26.4,24.8,00.0,35.2,28.3,26.6,0001.7,0009.33,0006.55,0006.31
2022-09-11 13:04:00,,0834.1,5.01,0.00,26.4,24.8,00.0,35.2,28.3,26.7,0001.8,0009.38,0006.59,0006.34
2022-09-11 13:05:00,,0834.1,4.99,0.00,26.4,24.8,00.0,35.2,28.3,26.8,0001.8,0009.41,0006.61,0006.35
2022-09-11 13:06:00,,0834.1,5.01,0.00,26.4,24.8,00.0,35.2,28.3,26.9,0001.6,0009.45,0006.63,0006.37
2022-09-11 13:07:00,,0834.1,4.99,0.00,26.4,24.7,00.0,35.2,28.3,27.0,0001.7,0009.54,0006.62,0006.37
2022-09-11 13:08:00,,0834.1,5.01,0.00,26.4,24.7,00.0,35.2,28.3,27.1,0001.9,0009.52,0006.63,0006.36
2022-09-11 13:09:00,,0834.1,4.99,0.00,26.4,24.7,00.0,35.2,28.3,27.2,0002.0,0009.76,0006.62,0006.35
2022-09-11 13:10:00,,0834.1,5.01,0.00,26.4,24.8,00.0,35.2,28.3,27.3,0002.0,0009.85,0006.61,0006.34
2022-09-11 13:11:00,,0834.1,4.99,0.00,26.4,24.8,00.0,35.2,28.3,27.2,0000.9,0009.79,0006.60,0006.33
2022-09-11 13:12:00,,0834.1,5.00,0.00,26.4,24.8,00.0,35.2,28.3,27.3,0001.9,0009.78,0006.60,0006.34
2022-09-11 13:13:00,,0834.1,5.01,0.00,26.4,24.7,00.0,35.2,28.3,27.4,0001.8,0009.76,0006.60,0006.34
2022-09-11 13:14:00,,0834.1,4.99,0.00,26.4,24.8,00.0,35.1,28.3,27.4,0001.3,0009.81,0006.58,0006.33
2022-09-11 13:15:00,,0834.1,5.00,0.00,26.4,24.8,00.0,35.1,28.3,27.3,0001.0,0009.80,0006.57,0006.32
2022-09-11 13:16:00,,0834.1,5.00,0.00,26.4,24.8,00.0,35.1,28.3,27.3,0001.2,0009.88,0006.57,0006.32
2022-09-11 13:17:00,,0834.1,5.00,0.00,26.4,24.8,00.0,35.1,28.3,27.2,0000.9,0009.86,0006.57,0006.32
2022-09-11 13:18:00,,0834.1,5.01,0.00,26.4,24.8,00.0,35.1,28.3,27.1,0000.5,0009.89,0006.58,0006.33
2022-09-11 13:19:00,,0834.1,5.00,0.00,26.4,24.8,00.0,35.1,28.2,27.2,0000.3,0009.87,0006.58,0006.34
2022-09-11 13:20:00,,0834.1,5.00,0.00,26.4,24.8,00.0,35.1,28.3,27.1,0000.1,0009.61,0006.59,0006.35
2022-09-11 13:21:00,,0834.1,5.01,0.00,26.4,24.8,00.0,35.1,28.3,27.1,0000.4,0009.49,0006.61,0006.37
2022-09-11 13:22:00,,0834.1,4.98,0.00,26.4,24.8,00.0,35.1,28.3,26.9,0000.1,0009.54,0006.62,0006.38
2022-09-11 13:23:00,,0834.1,5.02,0.00,26.4,24.8,00.0,35.1,28.3,26.8,0000.0,0009.53,0006.61,0006.39
2022-09-11 13:24:00,,0834.1,4.99,0.00,26.4,24.8,00.0,35.1,28.3,26.7,-000.4,0009.54,0006.61,0006.39
2022-09-11 13:25:00,,0834.1,5.01,0.00,26.4,24.8,00.0,35.1,28.3,26.7,-000.6,0009.25,0006.60,0006.40
2022-09-11 13:26:00,,0834.1,4.99,0.00,26.4,24.8,00.0,35.1,28.3,26.6,-000.6,0009.12,0006.60,0006.41
2022-09-11 13:27:00,,0834.1,5.01,0.00,26.4,24.8,00.0,35.1,28.2,26.6,-000.8,0009.05,0006.62,0006.43
2022-09-11 13:28:00,,0834.1,5.00,0.00,26.4,24.8,00.0,35.1,28.2,26.7,-000.7,0009.04,0006.63,0006.44
2022-09-11 13:29:00,,0834.1,5.00,0.00,26.4,24.8,00.0,35.1,28.2,26.7,-000.4,0008.89,0006.62,0006.46
2022-09-11 13:30:00,,0834.1,5.01,0.00,26.4,24.8,00.0,35.1,28.2,26.8,-000.7,0008.94,0006.63,0006.46
2022-09-11 13:31:00,,0834.1,4.99,0.00,26.4,24.8,00.0,35.1,28.3,26.8,-000.1,0008.95,0006.66,0006.48
2022-09-11 13:32:00,,0834.1,5.01,0.00,26.4,24.8,00.0,35.1,28.3,26.9,-000.2,0008.95,0006.67,0006.49
2022-09-11 13:33:00,,0834.2,4.99,0.00,26.4,24.8,00.0,35.1,28.2,27.0,-000.2,0008.96,0006.71,0006.51
2022-09-11 13:34:00,,0834.2,5.01,0.00,26.4,24.8,00.0,35.1,28.3,27.1,-000.3,0008.93,0006.71,0006.52
2022-09-11 13:35:00,,0834.2,5.00,0.00,26.4,24.8,00.0,35.1,28.3,27.3,-000.1,0008.96,0006.73,0006.54
2022-09-11 13:36:00,,0834.2,4.99,0.00,26.4,24.9,00.0,35.1,28.3,27.4,-000.2,0008.87,0006.73,0006.53
2022-09-11 13:37:00,,0834.2,5.01,0.00,26.4,24.9,00.0,35.1,28.3,27.4,0000.4,0008.91,0006.73,0006.52
2022-09-11 13:38:00,,0834.2,4.98,0.00,26.4,24.9,00.0,35.1,28.3,27.4,0000.6,0008.93,0006.74,0006.52
2022-09-11 13:39:00,,0834.2,5.01,0.00,26.4,24.9,00.0,35.1,28.3,27.4,0000.3,0008.94,0006.75,0006.52
2022-09-11 13:40:00,,0834.2,4.98,0.00,26.4,24.9,00.0,35.1,28.3,27.6,0000.3,0008.93,0006.75,0006.53
2022-09-11 13:41:00,,0834.2,5.02,0.00,26.4,24.9,00.0,35.1,28.3,27.5,0000.3,0008.89,0006.74,0006.54
2022-09-11 13:42:00,,0834.2,4.98,0.00,26.4,24.9,00.0,35.2,28.3,27.8,-000.5,0008.88,0006.73,0006.53
2022-09-11 13:43:00,,0834.3,5.01,0.00,26.4,24.9,00.0,35.2,28.3,28.1,-001.0,0008.90,0006.73,0006.52
2022-09-11 13:44:00,,0834.3,4.99,0.00,26.4,25.0,00.0,35.2,28.3,29.1,-000.8,0008.87,0006.73,0006.52
2022-09-11 13:45:00,,0834.3,5.01,0.00,26.4,25.0,00.0,35.2,28.3,28.9,-000.9,0008.91,0006.76,0006.55
2022-09-11 13:46:00,,0834.3,4.99,0.00,26.4,25.0,00.0,35.2,28.3,28.2,-001.2,0008.97,0006.79,0006.57
2022-09-11 13:47:00,,0834.2,5.02,0.00,26.4,25.0,00.0,35.2,28.3,28.2,-001.1,0009.00,0006.82,0006.59
2022-09-11 13:48:00,,0834.3,4.98,0.00,26.4,25.0,00.0,35.2,28.3,28.2,-001.6,0008.99,0006.83,0006.61
2022-09-11 13:49:00,,0834.3,5.02,0.00,26.5,25.0,00.0,35.2,28.4,28.4,-002.1,0009.06,0006.85,0006.61
2022-09-11 13:50:00,,0834.3,4.98,0.00,26.5,25.0,00.0,35.2,28.4,28.2,-002.2,0009.10,0006.86,0006.62
2022-09-11 13:51:00,,0834.3,5.01,0.00,26.5,25.1,00.0,35.2,28.4,28.1,-002.1,0009.13,0006.88,0006.64
2022-09-11 13:52:00,,0834.3,4.99,0.00,26.5,25.1,00.0,35.2,28.4,28.1,-002.1,0009.17,0006.90,0006.65
2022-09-11 13:53:00,,0834.3,5.01,0.00,26.5,25.0,00.0,35.2,28.4,28.2,-001.8,0009.14,0006.91,0006.68
2022-09-11 13:54:00,,0834.3,4.99,0.00,26.5,25.1,00.0,35.2,28.4,28.1,-001.6,0009.17,0006.95,0006.71
2022-09-11 13:55:00,,0834.3,5.01,0.00,26.5,25.1,00.0,35.2,28.4,27.9,-001.4,0009.15,0006.95,0006.72
2022-09-11 13:56:00,,0834.3,4.99,0.00,26.5,25.1,00.0,35.2,28.4,28.0,-001.2,0009.23,0006.96,0006.73
2022-09-11 13:57:00,,0834.3,5.02,0.00,26.5,25.1,00.0,35.2,28.4,27.9,-001.1,0009.23,0006.96,0006.74
2022-09-11 13:58:00,,0834.3,4.98,0.00,26.5,25.1,00.0,35.2,28.4,27.8,-001.0,0009.28,0006.98,0006.76
2022-09-11 13:59:00,,0834.3,5.01,0.00,26.5,25.1,00.0,35.2,28.5,28.2,-001.0,0009.29,0006.99,0006.78
